• en France
  • Liste des pays
  • À 7 jours
  • Température de l'eau
  • Carte satellitaire
  • Carte météo
  • Widgets météo
  • user-avatar
    Se connecter

    Météo par heure à Man

    Ce jour, 21 Octobre, Dimanche

    Heure Température Précipitation Vent Pression Humidité
    00:00 +22°C° 0 mm 0 m/s 724 mmHg 86%
    01:00 +22°C° 0 mm 0 m/s 724 mmHg 88%
    02:00 +21°C° 0 mm 0 m/s 723 mmHg 91%
    03:00 +21°C° 0 mm 0 m/s 724 mmHg 92%
    04:00 +21°C° 0 mm 0 m/s 724 mmHg 94%
    05:00 +21°C° 0 mm 0 m/s 724 mmHg 94%
    06:00 +23°C° 0 mm 0 m/s 724 mmHg 86%
    07:00 +25°C° 0 mm 0 m/s 725 mmHg 78%
    08:00 +29°C° 0 mm 1 m/s 725 mmHg 71%
    09:00 +31°C° 0.2 mm 1 m/s 725 mmHg 64%
    10:00 +32°C° 0.2 mm 1 m/s 725 mmHg 57%
    11:00 +34°C° 0.2 mm 1 m/s 725 mmHg 51%
    12:00 +34°C° 0.1 mm 1 m/s 724 mmHg 51%
    13:00 +34°C° 0.1 mm 1 m/s 724 mmHg 52%
    14:00 +33°C° 0.1 mm 1 m/s 723 mmHg 52%
    15:00 +32°C° 0.3 mm 1 m/s 723 mmHg 61%
    16:00 +30°C° 0.3 mm 1 m/s 723 mmHg 69%
    17:00 +28°C° 0.3 mm 1 m/s 723 mmHg 78%
    18:00 +27°C° 0.4 mm 1 m/s 724 mmHg 82%
    19:00 +24°C° 0.4 mm 0 m/s 725 mmHg 87%
    20:00 +23°C° 0.4 mm 0 m/s 725 mmHg 91%
    21:00 +23°C° 1.1 mm 0 m/s 725 mmHg 93%
    22:00 +22°C° 1.1 mm 0 m/s 725 mmHg 95%
    23:00 +24°C° 1.1 mm 1 m/s 725 mmHg 97%

    Demain, 22 Octobre, Lundi

    Heure Température Précipitation Vent Pression Humidité
    00:00 +24°C° 0.2 mm 1 m/s 725 mmHg 97%
    01:00 +23°C° 0.2 mm 1 m/s 725 mmHg 98%
    02:00 +23°C° 0.2 mm 1 m/s 724 mmHg 98%
    03:00 +23°C° 0 mm 1 m/s 725 mmHg 98%
    04:00 +23°C° 0 mm 1 m/s 725 mmHg 98%
    05:00 +23°C° 0 mm 1 m/s 725 mmHg 99%
    06:00 +24°C° 0 mm 1 m/s 725 mmHg 94%
    07:00 +26°C° 0 mm 1 m/s 726 mmHg 90%
    08:00 +27°C° 0 mm 1 m/s 726 mmHg 85%
    09:00 +29°C° 0 mm 1 m/s 726 mmHg 74%
    10:00 +32°C° 0 mm 1 m/s 726 mmHg 62%
    11:00 +34°C° 0 mm 1 m/s 725 mmHg 51%
    12:00 +34°C° 0.1 mm 1 m/s 725 mmHg 50%
    13:00 +34°C° 0.1 mm 1 m/s 724 mmHg 49%
    14:00 +35°C° 0.1 mm 1 m/s 723 mmHg 48%
    15:00 +33°C° 0.2 mm 1 m/s 723 mmHg 57%
    16:00 +31°C° 0.2 mm 1 m/s 724 mmHg 66%
    17:00 +29°C° 0.2 mm 1 m/s 724 mmHg 75%
    18:00 +28°C° 1.4 mm 1 m/s 724 mmHg 81%
    19:00 +26°C° 1.4 mm 1 m/s 725 mmHg 88%
    20:00 +25°C° 1.4 mm 1 m/s 726 mmHg 94%
    21:00 +25°C° 0.1 mm 1 m/s 726 mmHg 95%
    22:00 +24°C° 0.1 mm 1 m/s 726 mmHg 96%
    23:00 +24°C° 0.1 mm 1 m/s 726 mmHg 97%

    Après-demain, 23 Octobre, Mardi

    Heure Température Précipitation Vent Pression Humidité
    00:00 +24°C° 0.3 mm 1 m/s 726 mmHg 97%
    01:00 +24°C° 0.3 mm 1 m/s 726 mmHg 97%
    02:00 +23°C° 0.3 mm 1 m/s 725 mmHg 98%
    03:00 +23°C° 0.1 mm 1 m/s 725 mmHg 98%
    04:00 +23°C° 0.1 mm 1 m/s 725 mmHg 98%
    05:00 +23°C° 0.1 mm 1 m/s 725 mmHg 98%
    06:00 +24°C° 0 mm 1 m/s 726 mmHg 95%
    07:00 +25°C° 0 mm 1 m/s 726 mmHg 91%
    08:00 +27°C° 0 mm 1 m/s 726 mmHg 88%
    09:00 +29°C° 0 mm 1 m/s 726 mmHg 78%
    10:00 +31°C° 0 mm 1 m/s 726 mmHg 68%
    11:00 +33°C° 0 mm 1 m/s 726 mmHg 58%
    12:00 +34°C° 0.1 mm 1 m/s 725 mmHg 56%
    13:00 +34°C° 0.1 mm 1 m/s 724 mmHg 54%
    14:00 +34°C° 0.1 mm 1 m/s 724 mmHg 52%
    15:00 +30°C° 0.3 mm 0 m/s 724 mmHg 61%
    16:00 +28°C° 0.3 mm 0 m/s 724 mmHg 69%
    17:00 +27°C° 0.3 mm 0 m/s 724 mmHg 78%
    18:00 +26°C° 0.4 mm 0 m/s 724 mmHg 82%
    19:00 +24°C° 0.4 mm 0 m/s 725 mmHg 86%
    20:00 +25°C° 0.4 mm 1 m/s 726 mmHg 89%
    21:00 +25°C° 0 mm 1 m/s 726 mmHg 91%
    22:00 +25°C° 0 mm 1 m/s 726 mmHg 93%
    23:00 +24°C° 0 mm 1 m/s 726 mmHg 95%

    24 Octobre, Mercredi

    Heure Température Précipitation Vent Pression Humidité
    00:00 +24°C° 0.1 mm 1 m/s 725 mmHg 96%
    01:00 +24°C° 0.1 mm 1 m/s 725 mmHg 96%
    02:00 +24°C° 0.1 mm 1 m/s 724 mmHg 97%
    03:00 +24°C° 0 mm 1 m/s 724 mmHg 97%
    04:00 +24°C° 0 mm 1 m/s 724 mmHg 97%
    05:00 +24°C° 0 mm 1 m/s 724 mmHg 98%
    06:00 +25°C° 0 mm 1 m/s 725 mmHg 94%
    07:00 +26°C° 0 mm 1 m/s 725 mmHg 91%
    08:00 +27°C° 0 mm 1 m/s 726 mmHg 87%
    09:00 +28°C° 0 mm 1 m/s 726 mmHg 79%
    10:00 +30°C° 0 mm 1 m/s 725 mmHg 71%
    11:00 +32°C° 0 mm 1 m/s 725 mmHg 64%
    12:00 +32°C° 0.3 mm 1 m/s 724 mmHg 64%
    13:00 +32°C° 0.3 mm 1 m/s 724 mmHg 65%
    14:00 +33°C° 0.3 mm 1 m/s 723 mmHg 65%
    15:00 +31°C° 0.4 mm 1 m/s 723 mmHg 71%
    16:00 +29°C° 0.4 mm 1 m/s 723 mmHg 78%
    17:00 +28°C° 0.4 mm 1 m/s 723 mmHg 84%
    18:00 +27°C° 0.1 mm 1 m/s 724 mmHg 88%
    19:00 +26°C° 0.1 mm 1 m/s 724 mmHg 91%
    20:00 +23°C° 0.1 mm 0 m/s 725 mmHg 95%
    21:00 +23°C° 0.2 mm 0 m/s 725 mmHg 95%
    22:00 +23°C° 0.2 mm 0 m/s 725 mmHg 96%
    23:00 +22°C° 0.2 mm 0 m/s 725 mmHg 96%

    25 Octobre, Jeudi

    Heure Température Précipitation Vent Pression Humidité
    00:00 +22°C° 0 mm 0 m/s 725 mmHg 97%
    01:00 +22°C° 0 mm 0 m/s 724 mmHg 97%
    02:00 +24°C° 0 mm 1 m/s 724 mmHg 98%
    03:00 +23°C° 0 mm 1 m/s 724 mmHg 98%
    04:00 +21°C° 0 mm 0 m/s 724 mmHg 98%
    05:00 +21°C° 0 mm 0 m/s 724 mmHg 99%
    06:00 +23°C° 0 mm 0 m/s 725 mmHg 93%
    07:00 +26°C° 0 mm 1 m/s 725 mmHg 88%
    08:00 +28°C° 0 mm 1 m/s 726 mmHg 83%
    09:00 +30°C° 0 mm 1 m/s 725 mmHg 71%
    10:00 +32°C° 0 mm 1 m/s 725 mmHg 60%
    11:00 +35°C° 0 mm 1 m/s 725 mmHg 48%
    12:00 +35°C° 0 mm 1 m/s 724 mmHg 46%
    13:00 +35°C° 0 mm 1 m/s 723 mmHg 44%
    14:00 +36°C° 0 mm 1 m/s 722 mmHg 41%
    15:00 +34°C° 0 mm 1 m/s 723 mmHg 50%
    16:00 +32°C° 0 mm 1 m/s 723 mmHg 60%
    17:00 +30°C° 0 mm 1 m/s 723 mmHg 69%
    18:00 +28°C° 0.8 mm 1 m/s 724 mmHg 77%
    19:00 +27°C° 0.8 mm 1 m/s 724 mmHg 85%
    20:00 +25°C° 0.8 mm 1 m/s 725 mmHg 93%
    21:00 +25°C° 0.1 mm 1 m/s 725 mmHg 94%
    22:00 +24°C° 0.1 mm 1 m/s 725 mmHg 95%
    23:00 +24°C° 0.1 mm 1 m/s 725 mmHg 97%

    26 Octobre, Vendredi

    Heure Température Précipitation Vent Pression Humidité
    00:00 +24°C° 0 mm 1 m/s 724 mmHg 97%
    01:00 +24°C° 0 mm 1 m/s 724 mmHg 98%
    02:00 +24°C° 0 mm 1 m/s 724 mmHg 98%
    03:00 +24°C° 0 mm 1 m/s 724 mmHg 98%
    04:00 +24°C° 0 mm 1 m/s 724 mmHg 98%
    05:00 +24°C° 0 mm 1 m/s 725 mmHg 98%
    06:00 +25°C° 0 mm 1 m/s 725 mmHg 95%
    07:00 +26°C° 0 mm 1 m/s 726 mmHg 91%
    08:00 +27°C° 0 mm 1 m/s 726 mmHg 87%
    09:00 +29°C° 0.3 mm 1 m/s 726 mmHg 77%
    10:00 +31°C° 0.3 mm 1 m/s 725 mmHg 67%
    11:00 +34°C° 0.3 mm 1 m/s 725 mmHg 57%
    12:00 +34°C° 0.2 mm 1 m/s 724 mmHg 54%
    13:00 +34°C° 0.2 mm 1 m/s 724 mmHg 50%
    14:00 +35°C° 0.2 mm 1 m/s 723 mmHg 47%
    15:00 +33°C° 0.3 mm 1 m/s 723 mmHg 56%
    16:00 +31°C° 0.3 mm 1 m/s 723 mmHg 64%
    17:00 +29°C° 0.3 mm 1 m/s 724 mmHg 73%
    18:00 +28°C° 0.5 mm 1 m/s 724 mmHg 79%
    19:00 +27°C° 0.5 mm 1 m/s 725 mmHg 85%
    20:00 +25°C° 0.5 mm 1 m/s 726 mmHg 91%
    21:00 +25°C° 0.1 mm 1 m/s 725 mmHg 93%
    22:00 +25°C° 0.1 mm 1 m/s 725 mmHg 95%
    23:00 +24°C° 0.1 mm 1 m/s 725 mmHg 97%
    Voir plus